When you browse on this site, cookies collect data to enhance your experience and personalize the content and advertising you see.
Visit our Privacy Policy to learn more. By continuing to use the site, you agree to this use of cookies and data.
  • In Austria
  • List of Countries
  • For 7 days
  • Water Temperature
  • Weather Map
  • News
  • Weather Widgets
  • user-avatar
    Login

    Hourly Weather Vetchin

    Today, 23 February, Sunday

    Time Temperature Precipitation Wind Pressure Humidity
    00:00 +3°C° 0 mm 7 mps 745 mmHg 68%
    01:00 +3°C° 0 mm 7 mps 744 mmHg 70%
    02:00 +3°C° 0 mm 7 mps 743 mmHg 69%
    03:00 +3°C° 0.2 mm 7 mps 742 mmHg 74%
    04:00 +3°C° 0.2 mm 7 mps 742 mmHg 79%
    05:00 +3°C° 0.2 mm 7 mps 741 mmHg 84%
    06:00 +3°C° 0.1 mm 7 mps 741 mmHg 80%
    07:00 +3°C° 0.1 mm 7 mps 741 mmHg 76%
    08:00 +3°C° 0.1 mm 7 mps 741 mmHg 73%
    09:00 +3°C° 0.2 mm 7 mps 741 mmHg 68%
    10:00 +4°C° 0.2 mm 8 mps 741 mmHg 64%
    11:00 +4°C° 0.2 mm 8 mps 741 mmHg 60%
    12:00 +4°C° 0.1 mm 8 mps 741 mmHg 57%
    13:00 +5°C° 0.1 mm 8 mps 741 mmHg 55%
    14:00 +5°C° 0.1 mm 7 mps 741 mmHg 52%
    15:00 +4°C° 0 mm 6 mps 740 mmHg 54%
    16:00 +5°C° 0 mm 5 mps 740 mmHg 56%
    17:00 +4°C° 0 mm 4 mps 739 mmHg 59%
    18:00 +4°C° 0 mm 4 mps 739 mmHg 64%
    19:00 +3°C° 0 mm 4 mps 739 mmHg 69%
    20:00 +3°C° 0 mm 4 mps 738 mmHg 75%
    21:00 +3°C° 0.1 mm 3 mps 737 mmHg 78%
    22:00 +2°C° 0.1 mm 3 mps 736 mmHg 81%
    23:00 +2°C° 0.1 mm 3 mps 735 mmHg 84%

    Tomorrow, 24 February, Monday

    Time Temperature Precipitation Wind Pressure Humidity
    00:00 +3°C° 0.3 mm 2 mps 734 mmHg 88%
    01:00 +4°C° 0.3 mm 1 mps 733 mmHg 93%
    02:00 +3°C° 0.3 mm 1 mps 732 mmHg 97%
    03:00 +2°C° 0.3 mm 2 mps 731 mmHg 96%
    04:00 +1°C° 0.3 mm 3 mps 731 mmHg 94%
    05:00 0°C° 0.3 mm 4 mps 731 mmHg 93%
    06:00 0°C° 0 mm 4 mps 732 mmHg 91%
    07:00 0°C° 0 mm 4 mps 733 mmHg 89%
    08:00 0°C° 0 mm 5 mps 735 mmHg 87%
    09:00 0°C° 0 mm 5 mps 735 mmHg 84%
    10:00 -1°C° 0 mm 6 mps 736 mmHg 80%
    11:00 0°C° 0 mm 7 mps 737 mmHg 77%
    12:00 0°C° 0 mm 7 mps 738 mmHg 77%
    13:00 0°C° 0 mm 7 mps 738 mmHg 78%
    14:00 0°C° 0 mm 7 mps 739 mmHg 78%
    15:00 +1°C° 0 mm 6 mps 739 mmHg 74%
    16:00 +1°C° 0 mm 6 mps 740 mmHg 69%
    17:00 +1°C° 0 mm 6 mps 741 mmHg 65%
    18:00 +1°C° 0 mm 5 mps 742 mmHg 66%
    19:00 0°C° 0 mm 5 mps 742 mmHg 68%
    20:00 -1°C° 0 mm 4 mps 743 mmHg 69%
    21:00 -1°C° 0 mm 4 mps 744 mmHg 72%
    22:00 -1°C° 0 mm 3 mps 744 mmHg 75%
    23:00 -1°C° 0 mm 3 mps 744 mmHg 77%

    Day after tomorrow, 25 February, Tuesday

    Time Temperature Precipitation Wind Pressure Humidity
    00:00 -1°C° 0 mm 2 mps 744 mmHg 79%
    01:00 -2°C° 0 mm 2 mps 744 mmHg 81%
    02:00 -2°C° 0 mm 2 mps 744 mmHg 83%
    03:00 -1°C° 0 mm 2 mps 744 mmHg 83%
    04:00 -1°C° 0 mm 2 mps 743 mmHg 83%
    05:00 -1°C° 0 mm 2 mps 742 mmHg 84%
    06:00 -1°C° 0 mm 3 mps 742 mmHg 84%
    07:00 -1°C° 0 mm 3 mps 742 mmHg 84%
    08:00 0°C° 0 mm 3 mps 741 mmHg 84%
    09:00 -1°C° 0.2 mm 4 mps 741 mmHg 88%
    10:00 -1°C° 0.2 mm 4 mps 740 mmHg 91%
    11:00 -1°C° 0.2 mm 4 mps 739 mmHg 94%
    12:00 -1°C° 0.2 mm 5 mps 738 mmHg 95%
    13:00 -1°C° 0.2 mm 5 mps 738 mmHg 95%
    14:00 -1°C° 0.2 mm 5 mps 737 mmHg 95%
    15:00 0°C° 0.2 mm 5 mps 736 mmHg 95%
    16:00 0°C° 0.2 mm 4 mps 736 mmHg 95%
    17:00 +1°C° 0.2 mm 4 mps 735 mmHg 95%
    18:00 +3°C° 0.4 mm 4 mps 735 mmHg 94%
    19:00 +3°C° 0.4 mm 4 mps 735 mmHg 94%
    20:00 +4°C° 0.4 mm 4 mps 735 mmHg 93%
    21:00 +4°C° 0.2 mm 4 mps 735 mmHg 93%
    22:00 +2°C° 0.2 mm 5 mps 735 mmHg 93%
    23:00 +2°C° 0.2 mm 5 mps 735 mmHg 93%

    26 February, Wednesday

    Time Temperature Precipitation Wind Pressure Humidity
    00:00 +3°C° 0.5 mm 4 mps 735 mmHg 93%
    01:00 +3°C° 0.5 mm 4 mps 735 mmHg 93%
    02:00 +3°C° 0.5 mm 4 mps 734 mmHg 93%
    03:00 +3°C° 0.1 mm 4 mps 734 mmHg 89%
    04:00 +2°C° 0.1 mm 3 mps 734 mmHg 86%
    05:00 +2°C° 0.1 mm 3 mps 734 mmHg 82%
    06:00 +2°C° 0 mm 3 mps 734 mmHg 83%
    07:00 +1°C° 0 mm 3 mps 734 mmHg 84%
    08:00 +1°C° 0 mm 3 mps 734 mmHg 85%
    09:00 +2°C° 0 mm 3 mps 734 mmHg 78%
    10:00 +3°C° 0 mm 3 mps 734 mmHg 72%
    11:00 +4°C° 0 mm 4 mps 735 mmHg 65%
    12:00 +5°C° 0 mm 4 mps 735 mmHg 61%
    13:00 +5°C° 0 mm 4 mps 734 mmHg 58%
    14:00 +7°C° 0 mm 3 mps 734 mmHg 54%
    15:00 +5°C° 0 mm 3 mps 734 mmHg 57%
    16:00 +6°C° 0 mm 2 mps 734 mmHg 61%
    17:00 +5°C° 0 mm 2 mps 734 mmHg 64%
    18:00 +5°C° 0 mm 1 mps 734 mmHg 67%
    19:00 +5°C° 0 mm 1 mps 735 mmHg 70%
    20:00 +4°C° 0 mm 1 mps 735 mmHg 73%
    21:00 +4°C° 0 mm 1 mps 735 mmHg 74%
    22:00 +3°C° 0 mm 1 mps 735 mmHg 76%
    23:00 +3°C° 0 mm 1 mps 735 mmHg 77%

    27 February, Thursday

    Time Temperature Precipitation Wind Pressure Humidity
    00:00 +3°C° 0 mm 1 mps 735 mmHg 79%
    01:00 +3°C° 0 mm 1 mps 735 mmHg 80%
    02:00 +3°C° 0 mm 1 mps 735 mmHg 81%
    03:00 +3°C° 0 mm 1 mps 735 mmHg 82%
    04:00 +2°C° 0 mm 1 mps 735 mmHg 82%
    05:00 +2°C° 0 mm 1 mps 735 mmHg 83%
    06:00 +3°C° 0 mm 1 mps 735 mmHg 84%
    07:00 +3°C° 0 mm 1 mps 735 mmHg 85%
    08:00 +3°C° 0 mm 1 mps 735 mmHg 86%
    09:00 +4°C° 0 mm 1 mps 735 mmHg 81%
    10:00 +5°C° 0 mm 1 mps 735 mmHg 76%
    11:00 +6°C° 0 mm 1 mps 735 mmHg 71%
    12:00 +5°C° 0 mm 2 mps 736 mmHg 68%
    13:00 +5°C° 0 mm 3 mps 736 mmHg 65%
    14:00 +5°C° 0 mm 3 mps 736 mmHg 61%
    15:00 +5°C° 0 mm 3 mps 736 mmHg 64%
    16:00 +4°C° 0 mm 3 mps 736 mmHg 66%
    17:00 +4°C° 0 mm 3 mps 737 mmHg 68%
    18:00 +3°C° 0 mm 3 mps 737 mmHg 70%
    19:00 +2°C° 0 mm 3 mps 738 mmHg 73%
    20:00 +2°C° 0 mm 3 mps 738 mmHg 75%
    21:00 +1°C° 0 mm 3 mps 738 mmHg 77%
    22:00 +1°C° 0 mm 2 mps 739 mmHg 80%
    23:00 +1°C° 0 mm 2 mps 739 mmHg 82%

    28 February, Friday

    Time Temperature Precipitation Wind Pressure Humidity
    00:00 -1°C° 0 mm 2 mps 739 mmHg 84%
    01:00 +1°C° 0 mm 1 mps 739 mmHg 85%
    02:00 0°C° 0 mm 1 mps 739 mmHg 86%
    03:00 0°C° 0 mm 1 mps 739 mmHg 88%
    04:00 0°C° 0 mm 1 mps 739 mmHg 89%
    05:00 -2°C° 0 mm 2 mps 739 mmHg 91%
    06:00 -2°C° 0 mm 2 mps 739 mmHg 90%
    07:00 -2°C° 0 mm 2 mps 739 mmHg 90%
    08:00 -1°C° 0 mm 2 mps 739 mmHg 89%
    09:00 +1°C° 0 mm 2 mps 739 mmHg 82%
    10:00 +2°C° 0 mm 2 mps 739 mmHg 74%
    11:00 +2°C° 0 mm 3 mps 739 mmHg 67%
    12:00 +3°C° 0 mm 3 mps 738 mmHg 61%
    13:00 +3°C° 0 mm 4 mps 737 mmHg 56%
    14:00 +4°C° 0 mm 4 mps 737 mmHg 50%
    15:00 +4°C° 0 mm 4 mps 736 mmHg 53%
    16:00 +3°C° 0 mm 4 mps 736 mmHg 56%
    17:00 +3°C° 0 mm 4 mps 736 mmHg 58%
    18:00 +2°C° 0.2 mm 5 mps 735 mmHg 69%
    19:00 +1°C° 0.2 mm 5 mps 735 mmHg 80%
    20:00 -1°C° 0.2 mm 6 mps 735 mmHg 91%
    21:00 -1°C° 0 mm 6 mps 735 mmHg 90%
    22:00 0°C° 0 mm 5 mps 734 mmHg 89%
    23:00 0°C° 0 mm 5 mps 734 mmHg 88%
    Show more